Time,TemperatureF,DewpointF,PressureIn,WindDirection,WindDirectionDegrees,WindSpeedMPH,WindSpeedGustMPH,Humidity,HourlyPrecipIn,Conditions,Clouds,dailyrainin,SoftwareType,DateUTC
2013-10-05 00:12:00,65.0,37.0,29.77,WSW,251,0.0,-999.0,35,-99.99,,,-99.99,,2013-10-05 06:12:00,
2013-10-05 00:22:00,65.0,37.0,29.78,WSW,251,1.0,-999.0,35,-99.99,,,-99.99,,2013-10-05 06:22:00,
2013-10-05 00:42:00,62.0,37.0,29.78,WSW,251,0.0,-999.0,39,-99.99,,,-99.99,,2013-10-05 06:42:00,
2013-10-05 00:52:00,60.0,37.0,29.79,WSW,251,0.0,-999.0,42,-99.99,,,-99.99,,2013-10-05 06:52:00,
2013-10-05 01:12:00,60.0,38.0,29.80,WSW,252,0.0,-999.0,44,-99.99,,,-99.99,,2013-10-05 07:12:00,
2013-10-05 01:22:00,60.0,36.0,29.80,WSW,255,1.0,-999.0,40,-99.99,,,-99.99,,2013-10-05 07:22:00,
2013-10-05 01:42:00,62.0,29.0,29.81,North,355,2.0,-999.0,28,-99.99,,,-99.99,,2013-10-05 07:42:00,
2013-10-05 01:52:00,62.0,25.0,29.82,NNW,345,4.0,-999.0,24,-99.99,,,-99.99,,2013-10-05 07:52:00,
2013-10-05 02:12:00,60.0,25.0,29.83,North,355,1.0,-999.0,26,-99.99,,,-99.99,,2013-10-05 08:12:00,
2013-10-05 02:23:00,61.0,23.0,29.84,NNW,340,3.0,-999.0,23,-99.99,,,-99.99,,2013-10-05 08:23:00,
2013-10-05 02:42:00,60.0,23.0,29.84,NNW,343,1.0,-999.0,24,-99.99,,,-99.99,,2013-10-05 08:42:00,
2013-10-05 02:52:00,58.0,26.0,29.85,NNW,343,0.0,-999.0,29,-99.99,,,-99.99,,2013-10-05 08:52:00,
2013-10-05 03:11:00,57.0,27.0,29.85,NNW,343,1.0,-999.0,31,-99.99,,,-99.99,,2013-10-05 09:11:00,
2013-10-05 03:22:00,55.0,25.0,29.85,NNW,343,1.0,-999.0,31,-99.99,,,-99.99,,2013-10-05 09:22:00,
2013-10-05 03:43:00,55.0,23.0,29.86,NNW,343,1.0,-999.0,29,-99.99,,,-99.99,,2013-10-05 09:43:00,
2013-10-05 03:54:00,55.0,23.0,29.86,NNW,343,1.0,-999.0,29,-99.99,,,-99.99,,2013-10-05 09:54:00,
2013-10-05 04:12:00,55.0,23.0,29.87,NNW,343,2.0,-999.0,29,-99.99,,,-99.99,,2013-10-05 10:12:00,
2013-10-05 04:23:00,54.0,23.0,29.88,NNW,342,1.0,-999.0,30,-99.99,,,-99.99,,2013-10-05 10:23:00,
2013-10-05 04:43:00,54.0,24.0,29.89,NNW,342,1.0,-999.0,31,-99.99,,,-99.99,,2013-10-05 10:43:00,
2013-10-05 04:53:00,53.0,22.0,29.90,NNW,342,1.0,-999.0,29,-99.99,,,-99.99,,2013-10-05 10:53:00,
2013-10-05 05:11:00,54.0,22.0,29.90,North,11,2.0,-999.0,28,-99.99,,,-99.99,,2013-10-05 11:11:00,
2013-10-05 05:22:00,56.0,19.0,29.91,North,5,4.0,-999.0,23,-99.99,,,-99.99,,2013-10-05 11:22:00,
2013-10-05 05:42:00,56.0,18.0,29.91,North,355,1.0,-999.0,22,-99.99,,,-99.99,,2013-10-05 11:42:00,
2013-10-05 05:52:00,56.0,18.0,29.91,North,351,4.0,-999.0,22,-99.99,,,-99.99,,2013-10-05 11:52:00,
2013-10-05 06:12:00,56.0,18.0,29.91,North,9,5.0,-999.0,22,-99.99,,,-99.99,,2013-10-05 12:12:00,
2013-10-05 06:22:00,55.0,18.0,29.92,West,281,3.0,-999.0,23,-99.99,,,-99.99,,2013-10-05 12:22:00,
2013-10-05 06:42:00,53.0,22.0,29.93,WNW,284,1.0,-999.0,30,-99.99,,,-99.99,,2013-10-05 12:42:00,
2013-10-05 06:53:00,51.0,23.0,29.94,WNW,284,1.0,-999.0,33,-99.99,,,-99.99,,2013-10-05 12:53:00,
2013-10-05 07:12:00,52.0,22.0,29.94,WNW,284,1.0,-999.0,31,-99.99,,,-99.99,,2013-10-05 13:12:00,
2013-10-05 07:22:00,51.0,21.0,29.95,WNW,284,1.0,-999.0,31,-99.99,,,-99.99,,2013-10-05 13:22:00,
2013-10-05 07:42:00,52.0,21.0,29.95,WNW,299,1.0,-999.0,29,-99.99,,,-99.99,,2013-10-05 13:42:00,
2013-10-05 07:52:00,54.0,21.0,29.96,NNE,24,2.0,-999.0,27,-99.99,,,-99.99,,2013-10-05 13:52:00,
2013-10-05 08:12:00,56.0,21.0,29.96,NNE,24,1.0,-999.0,25,-99.99,,,-99.99,,2013-10-05 14:12:00,
2013-10-05 08:22:00,55.0,23.0,29.97,West,270,2.0,-999.0,29,-99.99,,,-99.99,,2013-10-05 14:22:00,
2013-10-05 08:42:00,54.0,23.0,29.98,West,270,2.0,-999.0,30,-99.99,,,-99.99,,2013-10-05 14:42:00,
2013-10-05 08:52:00,55.0,25.0,29.99,West,271,2.0,-999.0,31,-99.99,,,-99.99,,2013-10-05 14:52:00,
2013-10-05 09:12:00,57.0,24.0,30.00,West,273,1.0,-999.0,28,-99.99,,,-99.99,,2013-10-05 15:12:00,
2013-10-05 09:22:00,57.0,24.0,30.00,West,273,1.0,-999.0,28,-99.99,,,-99.99,,2013-10-05 15:22:00,
2013-10-05 09:44:00,59.0,24.0,30.00,West,273,1.0,-999.0,26,-99.99,,,-99.99,,2013-10-05 15:44:00,
2013-10-05 09:53:00,60.0,22.0,30.00,North,9,2.0,-999.0,23,-99.99,,,-99.99,,2013-10-05 15:53:00,
2013-10-05 10:13:00,62.0,24.0,30.01,North,355,3.0,-999.0,23,-99.99,,,-99.99,,2013-10-05 16:13:00,
2013-10-05 10:23:00,62.0,23.0,30.01,NNE,15,5.0,-999.0,22,-99.99,,,-99.99,,2013-10-05 16:23:00,
2013-10-05 10:43:00,62.0,22.0,30.00,North,5,6.0,-999.0,21,-99.99,,,-99.99,,2013-10-05 16:43:00,
2013-10-05 10:53:00,63.0,21.0,30.01,NNE,17,5.0,-999.0,20,-99.99,,,-99.99,,2013-10-05 16:53:00,
2013-10-05 11:12:00,64.0,22.0,30.00,North,5,6.0,-999.0,20,-99.99,,,-99.99,,2013-10-05 17:12:00,
2013-10-05 11:22:00,64.0,22.0,30.01,NE,43,5.0,-999.0,20,-99.99,,,-99.99,,2013-10-05 17:22:00,
2013-10-05 11:42:00,64.0,22.0,30.01,NNE,24,5.0,-999.0,20,-99.99,,,-99.99,,2013-10-05 17:42:00,
2013-10-05 11:52:00,65.0,23.0,30.01,North,360,4.0,-999.0,20,-99.99,,,-99.99,,2013-10-05 17:52:00,
2013-10-05 12:12:00,66.0,23.0,30.00,North,360,5.0,-999.0,19,-99.99,,,-99.99,,2013-10-05 18:12:00,
2013-10-05 12:22:00,66.0,23.0,29.99,NNE,14,2.0,-999.0,19,-99.99,,,-99.99,,2013-10-05 18:22:00,
2013-10-05 12:42:00,69.0,25.0,29.99,NNE,13,1.0,-999.0,19,-99.99,,,-99.99,,2013-10-05 18:42:00,
2013-10-05 12:52:00,70.0,25.0,29.98,NNW,341,1.0,-999.0,18,-99.99,,,-99.99,,2013-10-05 18:52:00,
2013-10-05 13:11:00,70.0,25.0,29.98,NNW,344,2.0,-999.0,18,-99.99,,,-99.99,,2013-10-05 19:11:00,
2013-10-05 13:22:00,68.0,24.0,29.97,NE,35,3.0,-999.0,19,-99.99,,,-99.99,,2013-10-05 19:22:00,
2013-10-05 13:42:00,70.0,27.0,29.96,NE,34,1.0,-999.0,20,-99.99,,,-99.99,,2013-10-05 19:42:00,
2013-10-05 13:52:00,71.0,27.0,29.96,West,281,2.0,-999.0,19,-99.99,,,-99.99,,2013-10-05 19:52:00,
2013-10-05 14:11:00,71.0,25.0,29.95,NW,306,2.0,-999.0,18,-99.99,,,-99.99,,2013-10-05 20:11:00,
2013-10-05 14:22:00,71.0,25.0,29.94,NW,322,1.0,-999.0,18,-99.99,,,-99.99,,2013-10-05 20:22:00,
2013-10-05 14:42:00,71.0,28.0,29.93,West,269,3.0,-999.0,20,-99.99,,,-99.99,,2013-10-05 20:42:00,
2013-10-05 14:52:00,71.0,25.0,29.93,WSW,241,5.0,-999.0,18,-99.99,,,-99.99,,2013-10-05 20:52:00,
2013-10-05 15:12:00,71.0,25.0,29.93,SW,236,3.0,-999.0,18,-99.99,,,-99.99,,2013-10-05 21:12:00,
2013-10-05 15:22:00,73.0,26.0,29.92,WNW,285,3.0,-999.0,17,-99.99,,,-99.99,,2013-10-05 21:22:00,
2013-10-05 15:44:00,73.0,26.0,29.92,West,265,3.0,-999.0,17,-99.99,,,-99.99,,2013-10-05 21:44:00,
2013-10-05 15:54:00,72.0,25.0,29.92,WNW,284,5.0,-999.0,17,-99.99,,,-99.99,,2013-10-05 21:54:00,
2013-10-05 16:13:00,74.0,26.0,29.92,West,260,3.0,-999.0,17,-99.99,,,-99.99,,2013-10-05 22:13:00,
2013-10-05 16:24:00,72.0,25.0,29.92,West,274,6.0,-999.0,17,-99.99,,,-99.99,,2013-10-05 22:24:00,
2013-10-05 16:42:00,73.0,26.0,29.92,West,280,6.0,-999.0,17,-99.99,,,-99.99,,2013-10-05 22:42:00,
2013-10-05 16:53:00,74.0,28.0,29.91,WNW,284,3.0,-999.0,18,-99.99,,,-99.99,,2013-10-05 22:53:00,
2013-10-05 17:13:00,73.0,27.0,29.91,WNW,292,5.0,-999.0,18,-99.99,,,-99.99,,2013-10-05 23:13:00,
2013-10-05 17:22:00,73.0,27.0,29.92,WNW,286,3.0,-999.0,18,-99.99,,,-99.99,,2013-10-05 23:22:00,
2013-10-05 17:43:00,72.0,26.0,29.92,West,271,5.0,-999.0,18,-99.99,,,-99.99,,2013-10-05 23:43:00,
2013-10-05 17:53:00,72.0,23.0,29.92,West,281,5.0,-999.0,16,-99.99,,,-99.99,,2013-10-05 23:53:00,
2013-10-05 18:12:00,72.0,23.0,29.92,WNW,284,3.0,-999.0,16,-99.99,,,-99.99,,2013-10-06 00:12:00,
2013-10-05 18:23:00,72.0,23.0,29.93,WNW,294,2.0,-999.0,16,-99.99,,,-99.99,,2013-10-06 00:23:00,
2013-10-05 18:43:00,71.0,24.0,29.93,WNW,293,2.0,-999.0,17,-99.99,,,-99.99,,2013-10-06 00:43:00,
2013-10-05 18:52:00,69.0,22.0,29.93,North,360,3.0,-999.0,17,-99.99,,,-99.99,,2013-10-06 00:52:00,
2013-10-05 19:11:00,68.0,23.0,29.95,North,355,3.0,-999.0,18,-99.99,,,-99.99,,2013-10-06 01:11:00,
2013-10-05 19:22:00,67.0,21.0,29.95,North,5,3.0,-999.0,17,-99.99,,,-99.99,,2013-10-06 01:22:00,
2013-10-05 19:42:00,66.0,19.0,29.96,North,10,5.0,-999.0,16,-99.99,,,-99.99,,2013-10-06 01:42:00,
2013-10-05 19:52:00,65.0,16.0,29.96,NNE,15,4.0,-999.0,15,-99.99,,,-99.99,,2013-10-06 01:52:00,
2013-10-05 20:42:00,63.0,16.0,29.98,NNE,29,4.0,-999.0,16,-99.99,,,-99.99,,2013-10-06 02:42:00,
2013-10-05 20:52:00,63.0,16.0,29.99,NNE,15,5.0,-999.0,16,-99.99,,,-99.99,,2013-10-06 02:52:00,
2013-10-05 21:12:00,62.0,15.0,29.99,NNE,17,4.0,-999.0,16,-99.99,,,-99.99,,2013-10-06 03:12:00,
2013-10-05 21:22:00,62.0,15.0,30.00,NE,38,5.0,-999.0,16,-99.99,,,-99.99,,2013-10-06 03:22:00,
2013-10-05 21:44:00,62.0,15.0,30.01,NNE,13,5.0,-999.0,16,-99.99,,,-99.99,,2013-10-06 03:44:00,
2013-10-05 21:54:00,62.0,15.0,30.01,NNE,15,6.0,-999.0,16,-99.99,,,-99.99,,2013-10-06 03:54:00,
2013-10-05 22:13:00,62.0,15.0,30.02,NNE,13,5.0,-999.0,16,-99.99,,,-99.99,,2013-10-06 04:13:00,
2013-10-05 22:24:00,62.0,17.0,30.02,NNE,24,5.0,-999.0,17,-99.99,,,-99.99,,2013-10-06 04:24:00,
2013-10-05 22:44:00,62.0,17.0,30.03,NNE,18,4.0,-999.0,17,-99.99,,,-99.99,,2013-10-06 04:44:00,
2013-10-05 22:54:00,62.0,17.0,30.03,NNE,18,4.0,-999.0,17,-99.99,,,-99.99,,2013-10-06 04:54:00,
2013-10-05 23:13:00,62.0,17.0,30.03,NE,40,4.0,-999.0,17,-99.99,,,-99.99,,2013-10-06 05:13:00,
2013-10-05 23:22:00,61.0,17.0,30.03,NE,38,4.0,-999.0,18,-99.99,,,-99.99,,2013-10-06 05:22:00,
2013-10-05 23:42:00,61.0,17.0,30.03,NNE,21,4.0,-999.0,18,-99.99,,,-99.99,,2013-10-06 05:42:00,
2013-10-05 23:52:00,60.0,16.0,30.04,NNE,26,4.0,-999.0,18,-99.99,,,-99.99,,2013-10-06 05:52:00,